Voltar ao catálogo

FENGYUN 1C DEB

AtivoPO
NORAD 37042·DEBRIS·🇨🇳 China

Lançado May 10, 1999 de Taiyuan Satellite Launch Center

Loading…

Próximas Passagens (próximas 24 horas)

TLE

EnvelhecendoSource: Space-Track

Época: Sep 7, 2026, 16:00 UTC

1 37042U 99025EEA 26250.66677415  .00013317  00000-0  15453-2 0  9993
2 37042  98.6067  34.5775 0044264 254.1216 105.5116 14.84841933767774

Acompanhe FENGYUN 1C DEB em tempo real com AllMySat

Download on the App Store